VLG5ST GCFV-LEZL

Flight info

Callsign VLG5ST
Flight time 1h 44m
Altitude 38000
Route KORAL UN871 ADUBI N871 VJF
Aircraft A320/M-SDE3FGHIRWY/LB1

Departure

Time 2026-04-26 08:15
Airport Fuerteventura Airport (GCFV)

Arrival

Time 2026-04-26 10:00
Airport Seville Airport (LEZL)
Time Latitude Longitude Altitude Speed Heading
2026-04-26 07:57 28.45051 -13.86845 98 ft 0 kts 271°
2026-04-26 08:05 28.45050 -13.86831 101 ft 4 kts 271°
2026-04-26 08:05 28.45050 -13.86800 102 ft 4 kts 272°
2026-04-26 08:05 28.45049 -13.86770 99 ft 3 kts 269°
2026-04-26 08:05 28.45050 -13.86752 99 ft 2 kts 240°
2026-04-26 08:06 28.45059 -13.86745 98 ft 2 kts 178°
2026-04-26 08:06 28.45071 -13.86744 98 ft 2 kts 224°
2026-04-26 08:06 28.45078 -13.86734 99 ft 2 kts 270°
2026-04-26 08:06 28.45076 -13.86722 98 ft 2 kts 316°
2026-04-26 08:07 28.45067 -13.86714 97 ft 2 kts
2026-04-26 08:07 28.45056 -13.86716 98 ft 2 kts 47°
2026-04-26 08:07 28.45050 -13.86727 99 ft 2 kts 93°
2026-04-26 08:07 28.45052 -13.86739 99 ft 2 kts 139°
2026-04-26 08:08 28.45061 -13.86746 99 ft 1 kts 184°
2026-04-26 08:09 28.45060 -13.86746 99 ft 0 kts 184°
2026-04-26 08:09 28.45059 -13.86746 99 ft 1 kts 184°
2026-04-26 08:10 28.45031 -13.86746 99 ft 7 kts 180°
2026-04-26 08:10 28.44980 -13.86747 99 ft 9 kts 181°
2026-04-26 08:10 28.44920 -13.86748 99 ft 8 kts 181°
2026-04-26 08:10 28.44870 -13.86737 98 ft 7 kts 140°
2026-04-26 08:11 28.44858 -13.86681 97 ft 8 kts 92°
2026-04-26 08:11 28.44855 -13.86618 94 ft 9 kts 100°
2026-04-26 08:11 28.44778 -13.86586 83 ft 17 kts 181°
2026-04-26 08:11 28.44644 -13.86590 70 ft 21 kts 181°
2026-04-26 08:12 28.44496 -13.86595 70 ft 22 kts 181°
2026-04-26 08:12 28.44341 -13.86600 65 ft 23 kts 181°
2026-04-26 08:12 28.44178 -13.86605 56 ft 24 kts 181°
2026-04-26 08:12 28.44009 -13.86610 53 ft 25 kts 181°
2026-04-26 08:13 28.43831 -13.86617 46 ft 26 kts 181°
2026-04-26 08:13 28.43652 -13.86622 41 ft 26 kts 182°
2026-04-26 08:13 28.43506 -13.86627 38 ft 17 kts 181°
2026-04-26 08:13 28.43401 -13.86631 35 ft 14 kts 182°
2026-04-26 08:14 28.43322 -13.86623 31 ft 11 kts 146°
2026-04-26 08:14 28.43306 -13.86540 33 ft 10 kts 91°
2026-04-26 08:14 28.43304 -13.86470 34 ft 8 kts 91°
2026-04-26 08:14 28.43334 -13.86440 34 ft 7 kts
2026-04-26 08:15 28.43426 -13.86437 33 ft 36 kts
2026-04-26 08:15 28.43926 -13.86421 34 ft 104 kts
2026-04-26 08:15 28.44837 -13.86391 89 ft 150 kts
2026-04-26 08:15 28.45863 -13.86354 721 ft 150 kts
2026-04-26 08:16 28.46904 -13.86247 1413 ft 152 kts 16°
2026-04-26 08:16 28.47891 -13.85773 2065 ft 159 kts 24°
2026-04-26 08:16 28.48946 -13.85157 2439 ft 182 kts 25°
2026-04-26 08:16 28.50139 -13.84444 2767 ft 207 kts 26°
2026-04-26 08:17 28.51489 -13.83636 3198 ft 232 kts 26°
2026-04-26 08:17 28.52974 -13.82749 3861 ft 246 kts 26°
2026-04-26 08:17 28.54508 -13.81833 4738 ft 253 kts 26°
2026-04-26 08:17 28.56082 -13.80896 5573 ft 259 kts 27°
2026-04-26 08:18 28.57695 -13.79945 6448 ft 263 kts 28°
2026-04-26 08:18 28.59335 -13.78982 7271 ft 268 kts 27°
2026-04-26 08:18 28.61010 -13.78001 8053 ft 275 kts 27°
2026-04-26 08:18 28.62723 -13.76997 8885 ft 279 kts 27°
2026-04-26 08:19 28.64462 -13.75976 9701 ft 284 kts 27°
2026-04-26 08:19 28.66244 -13.74933 10308 ft 297 kts 27°
2026-04-26 08:19 28.68155 -13.73813 10577 ft 320 kts 26°
2026-04-26 08:19 28.70185 -13.72652 11087 ft 332 kts 25°
2026-04-26 08:20 28.72292 -13.71541 11815 ft 335 kts 23°
2026-04-26 08:20 28.74437 -13.70458 12580 ft 339 kts 22°
2026-04-26 08:20 28.76611 -13.69379 13311 ft 343 kts 22°
2026-04-26 08:20 28.78805 -13.68290 14061 ft 345 kts 21°
2026-04-26 08:21 28.81019 -13.67181 14659 ft 350 kts 22°
2026-04-26 08:21 28.83257 -13.66050 15291 ft 354 kts 23°
2026-04-26 08:21 28.85521 -13.64898 15881 ft 360 kts 22°
2026-04-26 08:21 28.87824 -13.63721 16477 ft 365 kts 21°
2026-04-26 08:22 28.90154 -13.62528 17077 ft 369 kts 23°
2026-04-26 08:22 28.92509 -13.61324 17667 ft 374 kts 21°
2026-04-26 08:22 28.94901 -13.60105 18266 ft 378 kts 22°
2026-04-26 08:22 28.97348 -13.58959 18786 ft 382 kts 18°
2026-04-26 08:23 28.99856 -13.57894 19280 ft 386 kts 18°
2026-04-26 08:23 29.02406 -13.56869 19800 ft 390 kts 17°
2026-04-26 08:23 29.04982 -13.55850 20319 ft 395 kts 16°
2026-04-26 08:23 29.07589 -13.54812 20840 ft 398 kts 17°
2026-04-26 08:24 29.10219 -13.53747 21374 ft 403 kts 17°
2026-04-26 08:24 29.12862 -13.52629 21933 ft 408 kts 21°
2026-04-26 08:24 29.15361 -13.51063 22495 ft 414 kts 32°
2026-04-26 08:24 29.17593 -13.48950 23025 ft 420 kts 44°
2026-04-26 08:25 29.19471 -13.46369 23535 ft 425 kts 53°
2026-04-26 08:25 29.21166 -13.43574 23973 ft 429 kts 54°
2026-04-26 08:25 29.22872 -13.40771 24385 ft 432 kts 53°
2026-04-26 08:25 29.24596 -13.37941 24808 ft 434 kts 54°
2026-04-26 08:26 29.26330 -13.35094 25210 ft 437 kts 54°
2026-04-26 08:26 29.28077 -13.32231 25616 ft 439 kts 54°
2026-04-26 08:26 29.29835 -13.29354 26002 ft 442 kts 54°
2026-04-26 08:26 29.31600 -13.26467 26396 ft 444 kts 54°
2026-04-26 08:27 29.33380 -13.23557 26772 ft 447 kts 54°
2026-04-26 08:27 29.35172 -13.20630 27140 ft 450 kts 54°
2026-04-26 08:27 29.36947 -13.17725 27503 ft 452 kts 54°
2026-04-26 08:27 29.38773 -13.14727 27870 ft 455 kts 54°
2026-04-26 08:28 29.40561 -13.11785 28216 ft 457 kts 54°
2026-04-26 08:28 29.42385 -13.08784 28563 ft 460 kts 54°
2026-04-26 08:28 29.44216 -13.05765 28897 ft 462 kts 54°
2026-04-26 08:28 29.46051 -13.02737 29232 ft 464 kts 54°
2026-04-26 08:29 29.47898 -12.99684 29585 ft 466 kts 54°
2026-04-26 08:29 29.49752 -12.96619 29920 ft 468 kts 54°
2026-04-26 08:29 29.51615 -12.93542 30212 ft 470 kts 54°
2026-04-26 08:29 29.53483 -12.90460 30464 ft 472 kts 54°
2026-04-26 08:30 29.55365 -12.87355 30711 ft 474 kts 54°
2026-04-26 08:30 29.57255 -12.84235 30949 ft 477 kts 54°
2026-04-26 08:30 29.59151 -12.81099 31188 ft 478 kts 54°
2026-04-26 08:30 29.61048 -12.77958 31399 ft 480 kts 54°
2026-04-26 08:31 29.62954 -12.74798 31684 ft 481 kts 54°
2026-04-26 08:31 29.64857 -12.71636 31996 ft 481 kts 54°
2026-04-26 08:31 29.66758 -12.68474 32314 ft 480 kts 54°
2026-04-26 08:31 29.68652 -12.65323 32631 ft 480 kts 54°
2026-04-26 08:32 29.70552 -12.62164 32948 ft 480 kts 54°
2026-04-26 08:32 29.72448 -12.59007 33268 ft 479 kts 54°
2026-04-26 08:32 29.74341 -12.55850 33570 ft 479 kts 54°
2026-04-26 08:32 29.76224 -12.52687 33902 ft 479 kts 54°
2026-04-26 08:33 29.78092 -12.49526 34186 ft 478 kts 54°
2026-04-26 08:33 29.79958 -12.46352 34450 ft 478 kts 55°
2026-04-26 08:33 29.81824 -12.43179 34747 ft 477 kts 55°
2026-04-26 08:33 29.83680 -12.40028 35049 ft 476 kts 55°
2026-04-26 08:34 29.85539 -12.36875 35291 ft 475 kts 54°
2026-04-26 08:34 29.87397 -12.33721 35518 ft 476 kts 54°
2026-04-26 08:34 29.89257 -12.30566 35729 ft 476 kts 54°
2026-04-26 08:34 29.91111 -12.27419 35940 ft 476 kts 54°
2026-04-26 08:35 29.92971 -12.24262 36154 ft 476 kts 54°
2026-04-26 08:35 29.94829 -12.21102 36369 ft 476 kts 54°
2026-04-26 08:35 29.96689 -12.17941 36562 ft 476 kts 54°
2026-04-26 08:35 29.98546 -12.14777 36757 ft 476 kts 55°
2026-04-26 08:36 30.00397 -12.11618 36934 ft 476 kts 55°
2026-04-26 08:36 30.02256 -12.08450 37148 ft 476 kts 54°
2026-04-26 08:36 30.04124 -12.05289 37312 ft 477 kts 54°
2026-04-26 08:36 30.05995 -12.02128 37485 ft 477 kts 54°
2026-04-26 08:37 30.07861 -11.98975 37659 ft 477 kts 54°
2026-04-26 08:37 30.09734 -11.95814 37842 ft 477 kts 54°
2026-04-26 08:37 30.11609 -11.92652 37974 ft 477 kts 54°
2026-04-26 08:37 30.13476 -11.89496 37975 ft 477 kts 54°
2026-04-26 08:38 30.17207 -11.83158 37979 ft 477 kts 54°
2026-04-26 08:38 30.20930 -11.76814 37987 ft 477 kts 54°
2026-04-26 08:39 30.24648 -11.70474 37973 ft 477 kts 54°
2026-04-26 08:39 30.28343 -11.64168 37982 ft 477 kts 54°
2026-04-26 08:40 30.32066 -11.57824 37972 ft 477 kts 54°
2026-04-26 08:40 30.35791 -11.51462 37972 ft 477 kts 54°
2026-04-26 08:41 30.39508 -11.45101 37981 ft 477 kts 54°
2026-04-26 08:41 30.43224 -11.38720 37983 ft 477 kts 55°
2026-04-26 08:42 30.46929 -11.32339 38010 ft 477 kts 55°
2026-04-26 08:42 30.50633 -11.25952 37989 ft 476 kts 54°
2026-04-26 08:43 30.54331 -11.19588 37988 ft 476 kts 54°
2026-04-26 08:43 30.58024 -11.13214 37980 ft 475 kts 55°
2026-04-26 08:44 30.61701 -11.06846 37984 ft 475 kts 55°
2026-04-26 08:44 30.64763 -11.01548 37975 ft 475 kts 55°
2026-04-26 08:45 30.69061 -10.94100 37976 ft 475 kts 55°
2026-04-26 08:45 30.72119 -10.88799 37975 ft 475 kts 55°
2026-04-26 08:46 30.75779 -10.82421 37975 ft 474 kts 55°
2026-04-26 08:46 30.79438 -10.76030 37976 ft 474 kts 55°
2026-04-26 08:47 30.83089 -10.69651 37978 ft 474 kts 55°
2026-04-26 08:47 30.86738 -10.63268 37985 ft 473 kts 55°
2026-04-26 08:48 30.90384 -10.56892 37975 ft 473 kts 55°
2026-04-26 08:48 30.94019 -10.50524 37971 ft 472 kts 55°
2026-04-26 08:49 30.97644 -10.44153 37973 ft 472 kts 55°
2026-04-26 08:49 31.01266 -10.37766 37972 ft 472 kts 55°
2026-04-26 08:50 31.04880 -10.31386 37963 ft 472 kts 55°
2026-04-26 08:50 31.08507 -10.24982 37964 ft 472 kts 55°
2026-04-26 08:51 31.13916 -10.15411 37977 ft 471 kts 55°
2026-04-26 08:52 31.17494 -10.09072 37975 ft 470 kts 55°
2026-04-26 08:52 31.21083 -10.02709 37973 ft 469 kts 56°
2026-04-26 08:53 31.24666 -9.96339 37968 ft 469 kts 56°
2026-04-26 08:53 31.28233 -9.89974 37973 ft 468 kts 56°
2026-04-26 08:54 31.31801 -9.83599 37969 ft 468 kts 56°
2026-04-26 08:54 31.35365 -9.77224 37972 ft 468 kts 56°
2026-04-26 08:55 31.39037 -9.70965 37970 ft 466 kts 48°
2026-04-26 08:55 31.43864 -9.66006 37980 ft 460 kts 30°
2026-04-26 08:56 31.49316 -9.62089 37973 ft 460 kts 30°
2026-04-26 08:56 31.54760 -9.58162 37971 ft 460 kts 30°
2026-04-26 08:57 31.60206 -9.54224 37977 ft 459 kts 30°
2026-04-26 08:57 31.65653 -9.50290 37989 ft 459 kts 30°
2026-04-26 08:58 31.71091 -9.46362 37980 ft 459 kts 30°
2026-04-26 08:58 31.76527 -9.42415 37987 ft 459 kts 30°
2026-04-26 08:59 31.81944 -9.38465 38000 ft 458 kts 30°
2026-04-26 08:59 31.87364 -9.34511 37998 ft 458 kts 30°
2026-04-26 09:00 31.92777 -9.30571 37991 ft 458 kts 30°
2026-04-26 09:00 31.98194 -9.26624 37992 ft 458 kts 30°
2026-04-26 09:01 32.03602 -9.22675 38018 ft 458 kts 30°
2026-04-26 09:01 32.09014 -9.18721 38012 ft 457 kts 30°
2026-04-26 09:02 32.14410 -9.14763 37993 ft 457 kts 30°
2026-04-26 09:02 32.19813 -9.10802 38007 ft 457 kts 31°
2026-04-26 09:03 32.25207 -9.06844 37999 ft 457 kts 30°
2026-04-26 09:03 32.30570 -9.02901 38002 ft 457 kts 31°
2026-04-26 09:04 32.35998 -8.98906 38012 ft 457 kts 31°
2026-04-26 09:04 32.41358 -8.94957 37999 ft 457 kts 31°
2026-04-26 09:05 32.46742 -8.90976 37999 ft 457 kts 31°
2026-04-26 09:05 32.52128 -8.86979 37998 ft 456 kts 31°
2026-04-26 09:06 32.57508 -8.82990 37998 ft 456 kts 31°
2026-04-26 09:06 32.62896 -8.78998 37999 ft 456 kts 31°
2026-04-26 09:07 32.68273 -8.75013 37998 ft 456 kts 31°
2026-04-26 09:07 32.73652 -8.71017 37996 ft 456 kts 31°
2026-04-26 09:08 32.79031 -8.67007 38002 ft 456 kts 31°
2026-04-26 09:08 32.84397 -8.62995 37998 ft 456 kts 31°
2026-04-26 09:09 32.89759 -8.58983 38008 ft 455 kts 31°
2026-04-26 09:09 32.95121 -8.54970 38004 ft 455 kts 31°
2026-04-26 09:10 33.00478 -8.50961 38000 ft 455 kts 31°
2026-04-26 09:10 33.05822 -8.46953 37997 ft 454 kts 31°
2026-04-26 09:11 33.11166 -8.42938 37987 ft 454 kts 31°
2026-04-26 09:11 33.16510 -8.38907 37987 ft 454 kts 31°
2026-04-26 09:12 33.21847 -8.34880 37988 ft 454 kts 31°
2026-04-26 09:12 33.27199 -8.30866 37978 ft 454 kts 31°
2026-04-26 09:13 33.32539 -8.26841 37976 ft 454 kts 31°
2026-04-26 09:13 33.37885 -8.22805 37976 ft 454 kts 31°
2026-04-26 09:14 33.43226 -8.18778 37978 ft 454 kts 31°
2026-04-26 09:14 33.48577 -8.14738 37975 ft 454 kts 31°
2026-04-26 09:15 33.53912 -8.10692 37981 ft 454 kts 32°
2026-04-26 09:15 33.59242 -8.06645 37978 ft 454 kts 32°
2026-04-26 09:16 33.64576 -8.02592 37971 ft 454 kts 32°
2026-04-26 09:16 33.69870 -7.98568 37981 ft 454 kts 32°
2026-04-26 09:17 33.75196 -7.94508 37989 ft 453 kts 32°
2026-04-26 09:17 33.80514 -7.90445 37985 ft 453 kts 32°
2026-04-26 09:18 33.85816 -7.86388 37980 ft 452 kts 32°
2026-04-26 09:18 33.91117 -7.82328 37989 ft 452 kts 32°
2026-04-26 09:19 33.96432 -7.78256 37989 ft 452 kts 32°
2026-04-26 09:19 34.01727 -7.74193 38009 ft 451 kts 32°
2026-04-26 09:20 34.07004 -7.70132 38006 ft 450 kts 32°
2026-04-26 09:20 34.12290 -7.66070 37999 ft 450 kts 32°
2026-04-26 09:21 34.17561 -7.62006 38003 ft 450 kts 32°
2026-04-26 09:21 34.22832 -7.57924 37995 ft 450 kts 32°
2026-04-26 09:22 34.28092 -7.53848 38008 ft 449 kts 32°
2026-04-26 09:22 34.33350 -7.49782 38010 ft 449 kts 32°
2026-04-26 09:23 34.38609 -7.45702 38011 ft 449 kts 31°
2026-04-26 09:23 34.43865 -7.41621 38009 ft 448 kts 31°
2026-04-26 09:24 34.49107 -7.37543 38004 ft 448 kts 32°
2026-04-26 09:24 34.54351 -7.33451 38002 ft 448 kts 31°
2026-04-26 09:25 34.59593 -7.29365 38013 ft 448 kts 31°
2026-04-26 09:25 34.64806 -7.25291 38009 ft 448 kts 31°
2026-04-26 09:26 34.70081 -7.21161 38012 ft 448 kts 31°
2026-04-26 09:26 34.75278 -7.17076 38026 ft 447 kts 31°
2026-04-26 09:27 34.80533 -7.12946 38024 ft 447 kts 31°
2026-04-26 09:27 34.85722 -7.08867 38014 ft 447 kts 31°
2026-04-26 09:28 34.90976 -7.04731 38009 ft 447 kts 31°
2026-04-26 09:28 34.96161 -7.00636 38016 ft 447 kts 31°
2026-04-26 09:29 35.01412 -6.96488 38015 ft 447 kts 31°
2026-04-26 09:29 35.06599 -6.92390 38023 ft 447 kts 31°
2026-04-26 09:30 35.11847 -6.88229 38022 ft 447 kts 31°
2026-04-26 09:30 35.17026 -6.84110 38024 ft 447 kts 31°
2026-04-26 09:31 35.22231 -6.79972 38027 ft 446 kts 31°
2026-04-26 09:31 35.27435 -6.75830 38028 ft 446 kts 31°
2026-04-26 09:32 35.31789 -6.72352 38030 ft 445 kts 31°
2026-04-26 09:32 35.36982 -6.68224 38020 ft 445 kts 30°
2026-04-26 09:33 35.42189 -6.64213 38016 ft 445 kts 28°
2026-04-26 09:33 35.47481 -6.60192 38024 ft 445 kts 30°
2026-04-26 09:33 35.50108 -6.58181 37817 ft 444 kts 29°
2026-04-26 09:34 35.52718 -6.56169 37538 ft 443 kts 29°
2026-04-26 09:34 35.55325 -6.54150 37267 ft 442 kts 28°
2026-04-26 09:34 35.57929 -6.52133 37009 ft 442 kts 29°
2026-04-26 09:34 35.60529 -6.50118 36737 ft 441 kts 27°
2026-04-26 09:35 35.63126 -6.48109 36487 ft 441 kts 30°
2026-04-26 09:35 35.65711 -6.46105 36224 ft 440 kts 30°
2026-04-26 09:35 35.68311 -6.44089 35251 ft 446 kts 30°
2026-04-26 09:35 35.70959 -6.42039 34146 ft 452 kts 29°
2026-04-26 09:36 35.73556 -6.40021 33189 ft 442 kts 28°
2026-04-26 09:36 35.76157 -6.37987 32126 ft 433 kts 29°
2026-04-26 09:36 35.78648 -6.36037 31092 ft 427 kts 28°
2026-04-26 09:36 35.81130 -6.34097 30327 ft 416 kts 29°
2026-04-26 09:37 35.83521 -6.32225 29862 ft 402 kts 28°
2026-04-26 09:37 35.85843 -6.30345 29324 ft 398 kts 32°
2026-04-26 09:37 35.88116 -6.28423 28832 ft 394 kts 32°
2026-04-26 09:37 35.90349 -6.26487 28154 ft 394 kts 32°
2026-04-26 09:38 35.92621 -6.24509 27117 ft 404 kts 33°
2026-04-26 09:38 35.94911 -6.22518 26650 ft 398 kts 33°
2026-04-26 09:38 35.97161 -6.20568 26206 ft 393 kts 32°
2026-04-26 09:38 35.99392 -6.18646 25731 ft 389 kts 33°
2026-04-26 09:39 36.01601 -6.16754 25291 ft 385 kts 33°
2026-04-26 09:39 36.03795 -6.14879 24816 ft 382 kts 33°
2026-04-26 09:39 36.05977 -6.13015 24336 ft 380 kts 34°
2026-04-26 09:39 36.08144 -6.11162 23859 ft 378 kts 34°
2026-04-26 09:40 36.10298 -6.09313 23332 ft 377 kts 34°
2026-04-26 09:40 36.12438 -6.07469 22851 ft 373 kts 34°
2026-04-26 09:40 36.14559 -6.05639 22360 ft 370 kts 34°
2026-04-26 09:40 36.16664 -6.03823 21875 ft 367 kts 34°
2026-04-26 09:41 36.18751 -6.02023 21414 ft 365 kts 34°
2026-04-26 09:41 36.20826 -6.00234 20955 ft 362 kts 34°
2026-04-26 09:41 36.22946 -5.98583 20492 ft 359 kts 26°
2026-04-26 09:41 36.25281 -5.97513 20031 ft 357 kts 13°
2026-04-26 09:42 36.27730 -5.97056 19552 ft 356 kts
2026-04-26 09:42 36.30189 -5.96740 19098 ft 355 kts
2026-04-26 09:42 36.32641 -5.96426 18648 ft 353 kts
2026-04-26 09:42 36.35080 -5.96111 18159 ft 352 kts
2026-04-26 09:43 36.37507 -5.95796 17698 ft 350 kts
2026-04-26 09:43 36.39918 -5.95481 17267 ft 347 kts
2026-04-26 09:43 36.42307 -5.95169 16818 ft 344 kts
2026-04-26 09:43 36.44684 -5.94858 16385 ft 342 kts
2026-04-26 09:44 36.47038 -5.94551 15963 ft 339 kts
2026-04-26 09:44 36.49385 -5.94381 15541 ft 339 kts 360°
2026-04-26 09:44 36.51713 -5.94797 15124 ft 339 kts 351°
2026-04-26 09:44 36.54014 -5.95403 14704 ft 337 kts 350°
2026-04-26 09:45 36.56303 -5.96010 14299 ft 336 kts 349°
2026-04-26 09:45 36.58581 -5.96612 13878 ft 334 kts 350°
2026-04-26 09:45 36.60853 -5.97211 13429 ft 333 kts 350°
2026-04-26 09:45 36.63106 -5.97804 13007 ft 330 kts 350°
2026-04-26 09:46 36.65345 -5.98396 12585 ft 327 kts 350°
2026-04-26 09:46 36.67564 -5.98982 12174 ft 325 kts 350°
2026-04-26 09:46 36.69764 -5.99561 11749 ft 323 kts 350°
2026-04-26 09:46 36.71958 -6.00138 11331 ft 321 kts 350°
2026-04-26 09:47 36.74137 -6.00710 10901 ft 320 kts 350°
2026-04-26 09:47 36.76316 -6.01279 10476 ft 319 kts 350°
2026-04-26 09:47 36.78478 -6.01844 10241 ft 312 kts 350°
2026-04-26 09:47 36.80557 -6.02394 10119 ft 301 kts 350°
2026-04-26 09:48 36.82579 -6.02811 9991 ft 289 kts 355°
2026-04-26 09:48 36.84556 -6.03103 9721 ft 284 kts 355°
2026-04-26 09:48 36.86509 -6.03396 9437 ft 281 kts 355°
2026-04-26 09:48 36.88450 -6.03691 9183 ft 279 kts 355°
2026-04-26 09:49 36.90367 -6.03983 8939 ft 278 kts 355°
2026-04-26 09:49 36.92286 -6.04275 8694 ft 277 kts 355°
2026-04-26 09:49 36.94198 -6.04563 8440 ft 276 kts 355°
2026-04-26 09:49 36.96103 -6.04849 8135 ft 275 kts 356°
2026-04-26 09:50 36.97991 -6.05134 7895 ft 273 kts 356°
2026-04-26 09:50 36.99875 -6.05418 7657 ft 272 kts 355°
2026-04-26 09:50 37.01750 -6.05700 7419 ft 271 kts 356°
2026-04-26 09:50 37.03593 -6.05977 7183 ft 270 kts 356°
2026-04-26 09:51 37.05473 -6.06260 6939 ft 268 kts 356°
2026-04-26 09:51 37.07325 -6.06538 6703 ft 267 kts 356°
2026-04-26 09:51 37.09145 -6.06811 6464 ft 267 kts 355°
2026-04-26 09:51 37.10989 -6.07090 6231 ft 266 kts 355°
2026-04-26 09:52 37.12849 -6.07374 5993 ft 266 kts 355°
2026-04-26 09:52 37.16492 -6.07930 5529 ft 265 kts 356°
2026-04-26 09:52 37.18320 -6.08207 5302 ft 264 kts 355°
2026-04-26 09:53 37.20165 -6.08486 5081 ft 263 kts 356°
2026-04-26 09:53 37.21933 -6.08756 4984 ft 249 kts 356°
2026-04-26 09:53 37.23604 -6.09010 4883 ft 235 kts 355°
2026-04-26 09:53 37.25172 -6.09250 4780 ft 225 kts 356°
2026-04-26 09:54 37.26738 -6.09489 4574 ft 223 kts 356°
2026-04-26 09:54 37.28270 -6.09721 4335 ft 220 kts 356°
2026-04-26 09:54 37.29830 -6.09956 3927 ft 225 kts 356°
2026-04-26 09:54 37.31338 -6.10184 3832 ft 219 kts 356°
2026-04-26 09:55 37.32861 -6.10416 3662 ft 218 kts 357°
2026-04-26 09:55 37.34362 -6.10646 3455 ft 217 kts 356°
2026-04-26 09:55 37.35864 -6.10878 3240 ft 216 kts 357°
2026-04-26 09:55 37.37354 -6.11077 3024 ft 214 kts
2026-04-26 09:56 37.38773 -6.10799 2923 ft 201 kts 22°
2026-04-26 09:56 37.39963 -6.10030 2849 ft 188 kts 40°
2026-04-26 09:56 37.40878 -6.08902 2731 ft 182 kts 56°
2026-04-26 09:56 37.41475 -6.07528 2558 ft 180 kts 72°
2026-04-26 09:57 37.41720 -6.05973 2361 ft 180 kts 89°
2026-04-26 09:57 37.41727 -6.04431 2166 ft 174 kts 89°
2026-04-26 09:57 37.41735 -6.02942 1911 ft 166 kts 89°
2026-04-26 09:57 37.41742 -6.01544 1692 ft 156 kts 89°
2026-04-26 09:58 37.41748 -6.00216 1504 ft 146 kts 88°
2026-04-26 09:58 37.41754 -5.98985 1304 ft 135 kts 88°
2026-04-26 09:58 37.41759 -5.97824 1129 ft 132 kts 86°
2026-04-26 09:58 37.41763 -5.96680 961 ft 131 kts 86°
2026-04-26 09:59 37.41765 -5.95545 814 ft 129 kts 87°
2026-04-26 09:59 37.41786 -5.94404 659 ft 130 kts 88°
2026-04-26 09:59 37.41798 -5.93252 535 ft 131 kts 89°
2026-04-26 09:59 37.41771 -5.92114 282 ft 131 kts 88°
2026-04-26 10:00 37.41789 -5.90981 116 ft 129 kts 88°
2026-04-26 10:00 37.41791 -5.89986 99 ft 83 kts 89°
2026-04-26 10:00 37.41793 -5.89565 99 ft 33 kts 90°
2026-04-26 10:00 37.41795 -5.89309 100 ft 18 kts 89°
2026-04-26 10:01 37.41836 -5.89252 100 ft 11 kts 352°
2026-04-26 10:01 37.41902 -5.89298 99 ft 11 kts 330°
2026-04-26 10:01 37.41964 -5.89342 100 ft 10 kts 330°
2026-04-26 10:01 37.42011 -5.89393 99 ft 9 kts 315°
2026-04-26 10:02 37.42055 -5.89449 98 ft 9 kts 314°
2026-04-26 10:02 37.42097 -5.89503 98 ft 8 kts 314°
2026-04-26 10:02 37.42139 -5.89558 96 ft 9 kts 314°
2026-04-26 10:02 37.42185 -5.89618 95 ft 10 kts 314°
2026-04-26 10:03 37.42234 -5.89681 94 ft 10 kts 314°
2026-04-26 10:03 37.42277 -5.89728 94 ft 7 kts 337°
2026-04-26 10:03 37.42313 -5.89755 94 ft 6 kts 314°
2026-04-26 10:03 37.42335 -5.89782 94 ft 4 kts 314°
2026-04-26 10:04 37.42343 -5.89792 94 ft 0 kts 314°